Time,TemperatureF,DewpointF,PressureIn,WindDirection,WindDirectionDegrees,WindSpeedMPH,WindSpeedGustMPH,Humidity,HourlyPrecipIn,Conditions,Clouds,dailyrainin,SoftwareType,DateUTC
2013-03-23 00:02:00,38.0,22.0,29.97,WSW,247,0.0,1.0,53,0.00,,,0.00,,2013-03-23 04:02:00,
2013-03-23 00:12:00,38.0,22.0,29.97,WSW,247,0.0,1.0,53,0.00,,,0.00,,2013-03-23 04:12:00,
2013-03-23 00:23:00,38.0,23.0,29.97,West,270,2.0,3.0,54,0.00,,,0.00,,2013-03-23 04:23:00,
2013-03-23 00:32:00,38.0,22.0,29.97,West,270,1.0,2.0,53,0.00,,,0.00,,2013-03-23 04:32:00,
2013-03-23 00:43:00,38.0,22.0,29.97,West,270,1.0,2.0,53,0.00,,,0.00,,2013-03-23 04:43:00,
2013-03-23 00:53:00,38.0,23.0,29.97,West,270,0.0,2.0,54,0.00,,,0.00,,2013-03-23 04:53:00,
2013-03-23 01:02:00,37.0,22.0,29.97,West,270,0.0,0.0,55,0.00,,,0.00,,2013-03-23 05:02:00,
2013-03-23 01:12:00,37.0,22.0,29.97,West,270,0.0,0.0,55,0.00,,,0.00,,2013-03-23 05:12:00,
2013-03-23 01:22:00,37.0,23.0,29.97,West,270,1.0,2.0,56,0.00,,,0.00,,2013-03-23 05:22:00,
2013-03-23 01:32:00,37.0,22.0,29.97,WNW,292,2.0,4.0,54,0.00,,,0.00,,2013-03-23 05:32:00,
2013-03-23 01:42:00,37.0,22.0,29.97,WNW,292,2.0,4.0,54,0.00,,,0.00,,2013-03-23 05:42:00,
2013-03-23 01:52:00,37.0,21.0,29.96,WNW,292,2.0,3.0,53,0.00,,,0.00,,2013-03-23 05:52:00,
2013-03-23 02:02:00,37.0,22.0,29.96,WNW,292,1.0,1.0,54,0.00,,,0.00,,2013-03-23 06:02:00,
2013-03-23 02:12:00,37.0,22.0,29.96,WNW,292,1.0,1.0,54,0.00,,,0.00,,2013-03-23 06:12:00,
2013-03-23 02:22:00,37.0,22.0,29.96,WNW,292,0.0,0.0,54,0.00,,,0.00,,2013-03-23 06:22:00,
2013-03-23 02:32:00,37.0,22.0,29.96,WNW,292,1.0,2.0,54,0.00,,,0.00,,2013-03-23 06:32:00,
2013-03-23 02:42:00,37.0,22.0,29.96,WNW,292,1.0,2.0,54,0.00,,,0.00,,2013-03-23 06:42:00,
2013-03-23 02:52:00,37.0,23.0,29.96,WNW,292,0.0,0.0,56,0.00,,,0.00,,2013-03-23 06:52:00,
2013-03-23 03:02:00,37.0,23.0,29.95,North,360,2.0,3.0,56,0.00,,,0.00,,2013-03-23 07:02:00,
2013-03-23 03:12:00,37.0,23.0,29.95,North,360,2.0,3.0,56,0.00,,,0.00,,2013-03-23 07:12:00,
2013-03-23 03:22:00,37.0,23.0,29.95,North,360,2.0,2.0,56,0.00,,,0.00,,2013-03-23 07:22:00,
2013-03-23 03:32:00,37.0,23.0,29.95,NNW,337,1.0,2.0,56,0.00,,,0.00,,2013-03-23 07:32:00,
2013-03-23 03:42:00,37.0,23.0,29.95,NNW,337,1.0,2.0,56,0.00,,,0.00,,2013-03-23 07:42:00,
2013-03-23 03:52:00,37.0,23.0,29.95,NNW,337,1.0,2.0,56,0.00,,,0.00,,2013-03-23 07:52:00,
2013-03-23 04:02:00,37.0,24.0,29.94,NNW,337,2.0,2.0,58,0.00,,,0.00,,2013-03-23 08:02:00,
2013-03-23 04:12:00,37.0,24.0,29.94,NNW,337,2.0,2.0,58,0.00,,,0.00,,2013-03-23 08:12:00,
2013-03-23 04:22:00,37.0,24.0,29.93,NW,315,2.0,3.0,59,0.00,,,0.00,,2013-03-23 08:22:00,
2013-03-23 04:32:00,37.0,24.0,29.94,NW,315,1.0,3.0,58,0.00,,,0.00,,2013-03-23 08:32:00,
2013-03-23 04:42:00,37.0,24.0,29.94,NW,315,1.0,3.0,58,0.00,,,0.00,,2013-03-23 08:42:00,
2013-03-23 04:52:00,37.0,24.0,29.94,NW,315,3.0,4.0,60,0.00,,,0.00,,2013-03-23 08:52:00,
2013-03-23 05:02:00,37.0,24.0,29.93,North,360,2.0,4.0,60,0.00,,,0.00,,2013-03-23 09:02:00,
2013-03-23 05:12:00,37.0,24.0,29.93,North,360,2.0,4.0,60,0.00,,,0.00,,2013-03-23 09:12:00,
2013-03-23 05:22:00,37.0,24.0,29.93,North,360,4.0,5.0,60,0.00,,,0.00,,2013-03-23 09:22:00,
2013-03-23 05:33:00,37.0,24.0,29.93,NNW,337,2.0,3.0,59,0.00,,,0.00,,2013-03-23 09:33:00,
2013-03-23 05:42:00,37.0,24.0,29.93,NNW,337,2.0,3.0,59,0.00,,,0.00,,2013-03-23 09:42:00,
2013-03-23 05:52:00,37.0,24.0,29.94,North,360,2.0,3.0,60,0.00,,,0.00,,2013-03-23 09:52:00,
2013-03-23 06:03:00,37.0,25.0,29.93,North,360,5.0,6.0,61,0.00,,,0.00,,2013-03-23 10:03:00,
2013-03-23 06:12:00,37.0,25.0,29.93,North,360,5.0,6.0,61,0.00,,,0.00,,2013-03-23 10:12:00,
2013-03-23 06:23:00,37.0,25.0,29.94,North,360,3.0,4.0,62,0.00,,,0.00,,2013-03-23 10:23:00,
2013-03-23 06:33:00,37.0,25.0,29.93,North,360,1.0,2.0,62,0.00,,,0.00,,2013-03-23 10:33:00,
2013-03-23 06:42:00,37.0,25.0,29.93,North,360,1.0,2.0,62,0.00,,,0.00,,2013-03-23 10:42:00,
2013-03-23 06:52:00,37.0,25.0,29.94,North,360,0.0,0.0,61,0.00,,,0.00,,2013-03-23 10:52:00,
2013-03-23 07:03:00,36.0,24.0,29.94,North,360,0.0,1.0,62,0.00,,,0.00,,2013-03-23 11:03:00,
2013-03-23 07:12:00,36.0,24.0,29.94,North,360,0.0,1.0,62,0.00,,,0.00,,2013-03-23 11:12:00,
2013-03-23 07:22:00,36.0,25.0,29.94,North,360,1.0,2.0,64,0.00,,,0.00,,2013-03-23 11:22:00,
2013-03-23 07:32:00,37.0,27.0,29.95,North,360,4.0,6.0,68,0.00,,,0.00,,2013-03-23 11:32:00,
2013-03-23 07:42:00,37.0,25.0,29.95,NE,45,2.0,3.0,62,0.00,,,0.00,,2013-03-23 11:42:00,
2013-03-23 07:51:00,37.0,25.0,29.95,NE,45,2.0,3.0,62,0.00,,,0.00,,2013-03-23 11:51:00,
2013-03-23 08:02:00,37.0,25.0,29.96,NE,45,1.0,2.0,62,0.00,,,0.00,,2013-03-23 12:02:00,
2013-03-23 08:12:00,37.0,25.0,29.96,NE,45,1.0,2.0,62,0.00,,,0.00,,2013-03-23 12:12:00,
2013-03-23 08:22:00,37.0,26.0,29.96,NE,45,1.0,3.0,64,0.00,,,0.00,,2013-03-23 12:22:00,
2013-03-23 08:33:00,37.0,26.0,29.96,NE,45,1.0,3.0,64,0.00,,,0.00,,2013-03-23 12:33:00,
2013-03-23 08:42:00,37.0,26.0,29.96,NE,45,1.0,3.0,64,0.00,,,0.00,,2013-03-23 12:42:00,
2013-03-23 08:52:00,37.0,24.0,29.97,ENE,67,3.0,6.0,60,0.00,,,0.00,,2013-03-23 12:52:00,
2013-03-23 09:03:00,37.0,24.0,29.98,NE,45,2.0,4.0,60,0.00,,,0.00,,2013-03-23 13:03:00,
2013-03-23 09:12:00,37.0,24.0,29.98,NE,45,2.0,4.0,60,0.00,,,0.00,,2013-03-23 13:12:00,
2013-03-23 09:22:00,37.0,24.0,29.98,East,90,4.0,6.0,60,0.00,,,0.00,,2013-03-23 13:22:00,
2013-03-23 09:32:00,38.0,25.0,29.98,NE,45,2.0,2.0,60,0.00,,,0.00,,2013-03-23 13:32:00,
2013-03-23 09:42:00,38.0,25.0,29.98,NE,45,2.0,2.0,60,0.00,,,0.00,,2013-03-23 13:42:00,
2013-03-23 09:52:00,38.0,25.0,29.98,NNE,22,3.0,5.0,60,0.00,,,0.00,,2013-03-23 13:52:00,
2013-03-23 10:03:00,39.0,26.0,29.98,NE,45,2.0,4.0,60,0.00,,,0.00,,2013-03-23 14:03:00,
2013-03-23 10:12:00,39.0,26.0,29.98,NE,45,2.0,4.0,60,0.00,,,0.00,,2013-03-23 14:12:00,
2013-03-23 10:22:00,39.0,25.0,29.98,NNE,22,4.0,7.0,57,0.00,,,0.00,,2013-03-23 14:22:00,
2013-03-23 10:32:00,40.0,26.0,29.98,East,90,3.0,6.0,56,0.00,,,0.00,,2013-03-23 14:32:00,
2013-03-23 10:42:00,40.0,26.0,29.98,East,90,3.0,6.0,56,0.00,,,0.00,,2013-03-23 14:42:00,
2013-03-23 10:52:00,40.0,26.0,29.98,East,90,3.0,6.0,56,0.00,,,0.00,,2013-03-23 14:52:00,
2013-03-23 11:03:00,43.0,25.0,29.98,NE,45,3.0,6.0,49,0.00,,,0.00,,2013-03-23 15:03:00,
2013-03-23 11:12:00,43.0,25.0,29.98,NE,45,3.0,6.0,49,0.00,,,0.00,,2013-03-23 15:12:00,
2013-03-23 11:22:00,44.0,27.0,29.98,NE,45,3.0,6.0,50,0.00,,,0.00,,2013-03-23 15:22:00,
2013-03-23 11:33:00,46.0,25.0,30.00,NE,45,3.0,7.0,44,0.00,,,0.00,,2013-03-23 15:33:00,
2013-03-23 11:43:00,46.0,25.0,30.00,NE,45,3.0,7.0,44,0.00,,,0.00,,2013-03-23 15:43:00,
2013-03-23 11:52:00,47.0,25.0,30.00,NE,45,4.0,9.0,42,0.00,,,0.00,,2013-03-23 15:52:00,
2013-03-23 12:03:00,50.0,23.0,30.02,NE,45,3.0,6.0,35,0.00,,,0.00,,2013-03-23 16:03:00,
2013-03-23 12:12:00,50.0,23.0,30.02,NE,45,3.0,6.0,35,0.00,,,0.00,,2013-03-23 16:12:00,
2013-03-23 12:23:00,50.0,23.0,30.02,NE,45,3.0,6.0,35,0.00,,,0.00,,2013-03-23 16:23:00,
2013-03-23 12:32:00,52.0,25.0,30.02,East,90,3.0,9.0,34,0.00,,,0.00,,2013-03-23 16:32:00,
2013-03-23 12:43:00,52.0,25.0,30.02,East,90,3.0,9.0,34,0.00,,,0.00,,2013-03-23 16:43:00,
2013-03-23 12:53:00,52.0,23.0,30.02,North,360,5.0,6.0,32,0.00,,,0.00,,2013-03-23 16:53:00,
2013-03-23 13:02:00,54.0,24.0,30.01,NE,45,6.0,7.0,31,0.00,,,0.00,,2013-03-23 17:02:00,
2013-03-23 13:12:00,54.0,25.0,30.01,East,90,5.0,9.0,32,0.00,,,0.00,,2013-03-23 17:12:00,
2013-03-23 13:22:00,54.0,25.0,30.01,East,90,5.0,9.0,32,0.00,,,0.00,,2013-03-23 17:22:00,
2013-03-23 13:32:00,54.0,25.0,30.00,North,360,3.0,6.0,32,0.00,,,0.00,,2013-03-23 17:32:00,
2013-03-23 13:42:00,54.0,25.0,30.00,North,360,3.0,6.0,32,0.00,,,0.00,,2013-03-23 17:42:00,
2013-03-23 13:52:00,54.0,25.0,30.00,NE,45,2.0,6.0,32,0.00,,,0.00,,2013-03-23 17:52:00,
2013-03-23 14:03:00,54.0,23.0,30.00,East,90,4.0,9.0,30,0.00,,,0.00,,2013-03-23 18:03:00,
2013-03-23 14:12:00,54.0,23.0,30.00,East,90,4.0,9.0,30,0.00,,,0.00,,2013-03-23 18:12:00,
2013-03-23 14:22:00,54.0,26.0,30.00,East,90,4.0,9.0,33,0.00,,,0.00,,2013-03-23 18:22:00,
2013-03-23 14:32:00,56.0,24.0,30.00,NE,45,3.0,5.0,29,0.00,,,0.00,,2013-03-23 18:32:00,
2013-03-23 14:42:00,56.0,24.0,30.00,NE,45,3.0,5.0,29,0.00,,,0.00,,2013-03-23 18:42:00,
2013-03-23 14:52:00,57.0,27.0,29.98,North,360,2.0,5.0,31,0.00,,,0.00,,2013-03-23 18:52:00,
2013-03-23 15:03:00,57.0,25.0,29.98,East,90,5.0,7.0,29,0.00,,,0.00,,2013-03-23 19:03:00,
2013-03-23 15:12:00,57.0,25.0,29.98,East,90,5.0,7.0,29,0.00,,,0.00,,2013-03-23 19:12:00,
2013-03-23 15:22:00,57.0,25.0,29.98,East,90,5.0,7.0,29,0.00,,,0.00,,2013-03-23 19:22:00,
2013-03-23 15:32:00,57.0,26.0,29.97,SE,135,3.0,7.0,30,0.00,,,0.00,,2013-03-23 19:32:00,
2013-03-23 15:42:00,57.0,26.0,29.97,SE,135,3.0,7.0,30,0.00,,,0.00,,2013-03-23 19:42:00,
2013-03-23 15:53:00,58.0,27.0,29.96,East,90,4.0,8.0,30,0.00,,,0.00,,2013-03-23 19:53:00,
2013-03-23 16:02:00,57.0,26.0,29.96,East,90,4.0,7.0,30,0.00,,,0.00,,2013-03-23 20:02:00,
2013-03-23 16:12:00,57.0,26.0,29.96,East,90,4.0,7.0,30,0.00,,,0.00,,2013-03-23 20:12:00,
2013-03-23 16:22:00,57.0,26.0,29.95,East,90,4.0,9.0,30,0.00,,,0.00,,2013-03-23 20:22:00,
2013-03-23 16:32:00,56.0,26.0,29.95,SE,135,6.0,9.0,31,0.00,,,0.00,,2013-03-23 20:32:00,
2013-03-23 16:42:00,56.0,26.0,29.95,SE,135,6.0,9.0,31,0.00,,,0.00,,2013-03-23 20:42:00,
2013-03-23 16:53:00,57.0,27.0,29.94,ESE,112,5.0,9.0,31,0.00,,,0.00,,2013-03-23 20:53:00,
2013-03-23 17:02:00,57.0,27.0,29.94,SE,135,3.0,6.0,31,0.00,,,0.00,,2013-03-23 21:02:00,
2013-03-23 17:12:00,57.0,27.0,29.94,SE,135,3.0,6.0,31,0.00,,,0.00,,2013-03-23 21:12:00,
2013-03-23 17:22:00,57.0,27.0,29.94,SE,135,3.0,6.0,31,0.00,,,0.00,,2013-03-23 21:22:00,
2013-03-23 17:32:00,57.0,27.0,29.92,SE,135,5.0,9.0,32,0.00,,,0.00,,2013-03-23 21:32:00,
2013-03-23 17:43:00,57.0,27.0,29.92,SE,135,5.0,9.0,32,0.00,,,0.00,,2013-03-23 21:43:00,
2013-03-23 17:54:00,56.0,27.0,29.91,NNE,22,4.0,7.0,33,0.00,,,0.00,,2013-03-23 21:54:00,
2013-03-23 18:03:00,55.0,26.0,29.91,SE,135,7.0,12.0,32,0.00,,,0.00,,2013-03-23 22:03:00,
2013-03-23 18:12:00,55.0,26.0,29.91,SE,135,7.0,12.0,32,0.00,,,0.00,,2013-03-23 22:12:00,
2013-03-23 18:23:00,55.0,26.0,29.91,SE,135,5.0,7.0,33,0.00,,,0.00,,2013-03-23 22:23:00,
2013-03-23 18:32:00,54.0,26.0,29.91,SE,135,5.0,10.0,34,0.00,,,0.00,,2013-03-23 22:32:00,
2013-03-23 18:42:00,54.0,26.0,29.91,SE,135,5.0,10.0,34,0.00,,,0.00,,2013-03-23 22:42:00,
2013-03-23 18:52:00,54.0,26.0,29.90,East,90,4.0,7.0,34,0.00,,,0.00,,2013-03-23 22:52:00,
2013-03-23 19:02:00,53.0,27.0,29.90,ESE,112,4.0,7.0,36,0.00,,,0.00,,2013-03-23 23:02:00,
2013-03-23 19:12:00,53.0,27.0,29.90,ESE,112,4.0,7.0,36,0.00,,,0.00,,2013-03-23 23:12:00,
2013-03-23 19:22:00,53.0,27.0,29.90,SE,135,5.0,9.0,36,0.00,,,0.00,,2013-03-23 23:22:00,
2013-03-23 19:32:00,51.0,26.0,29.90,NE,45,5.0,9.0,37,0.00,,,0.00,,2013-03-23 23:32:00,
2013-03-23 19:42:00,51.0,26.0,29.90,NE,45,5.0,9.0,37,0.00,,,0.00,,2013-03-23 23:42:00,
2013-03-23 19:52:00,51.0,26.0,29.89,NE,45,6.0,9.0,37,0.00,,,0.00,,2013-03-23 23:52:00,
2013-03-23 20:02:00,49.0,26.0,29.89,East,90,4.0,8.0,40,0.00,,,0.00,,2013-03-24 00:02:00,
2013-03-23 20:12:00,49.0,26.0,29.89,East,90,4.0,8.0,40,0.00,,,0.00,,2013-03-24 00:12:00,
2013-03-23 20:22:00,48.0,27.0,29.88,NE,45,3.0,6.0,43,0.00,,,0.00,,2013-03-24 00:22:00,
2013-03-23 20:32:00,48.0,27.0,29.87,ENE,67,5.0,10.0,43,0.00,,,0.00,,2013-03-24 00:32:00,
2013-03-23 20:42:00,48.0,27.0,29.87,ENE,67,5.0,10.0,43,0.00,,,0.00,,2013-03-24 00:42:00,
2013-03-23 20:52:00,47.0,26.0,29.87,NE,45,3.0,6.0,43,0.00,,,0.00,,2013-03-24 00:52:00,
2013-03-23 21:02:00,47.0,26.0,29.85,NE,45,4.0,6.0,44,0.00,,,0.00,,2013-03-24 01:02:00,
2013-03-23 21:12:00,47.0,26.0,29.85,NE,45,4.0,6.0,44,0.00,,,0.00,,2013-03-24 01:12:00,
2013-03-23 21:22:00,46.0,26.0,29.85,North,360,4.0,6.0,45,0.00,,,0.00,,2013-03-24 01:22:00,
2013-03-23 21:32:00,46.0,26.0,29.85,NNE,22,5.0,7.0,45,0.00,,,0.00,,2013-03-24 01:32:00,
2013-03-23 21:52:00,46.0,27.0,29.85,NE,45,5.0,8.0,47,0.00,,,0.00,,2013-03-24 01:52:00,
2013-03-23 22:02:00,45.0,26.0,29.84,East,90,3.0,6.0,47,0.00,,,0.00,,2013-03-24 02:02:00,
2013-03-23 22:12:00,45.0,26.0,29.84,East,90,3.0,6.0,47,0.00,,,0.00,,2013-03-24 02:12:00,
2013-03-23 22:22:00,45.0,27.0,29.84,North,360,5.0,8.0,48,0.00,,,0.00,,2013-03-24 02:22:00,
2013-03-23 22:32:00,45.0,27.0,29.83,NE,45,5.0,7.0,50,0.00,,,0.00,,2013-03-24 02:32:00,
2013-03-23 22:42:00,45.0,27.0,29.83,NE,45,5.0,7.0,50,0.00,,,0.00,,2013-03-24 02:42:00,
2013-03-23 22:52:00,44.0,27.0,29.83,North,360,5.0,8.0,50,0.00,,,0.00,,2013-03-24 02:52:00,
2013-03-23 23:02:00,44.0,27.0,29.83,NNE,22,4.0,10.0,50,0.00,,,0.00,,2013-03-24 03:02:00,
2013-03-23 23:12:00,44.0,27.0,29.83,NNE,22,4.0,10.0,50,0.00,,,0.00,,2013-03-24 03:12:00,
2013-03-23 23:22:00,44.0,27.0,29.83,NE,45,5.0,8.0,51,0.00,,,0.00,,2013-03-24 03:22:00,
2013-03-23 23:33:00,43.0,27.0,29.82,NE,45,3.0,6.0,52,0.00,,,0.00,,2013-03-24 03:33:00,
2013-03-23 23:42:00,43.0,27.0,29.82,NE,45,3.0,6.0,52,0.00,,,0.00,,2013-03-24 03:42:00,
2013-03-23 23:53:00,43.0,27.0,29.81,North,360,3.0,5.0,52,0.00,,,0.00,,2013-03-24 03:53:00,